Weather History for Morelia, Mexico

Change the Weather History Date:

Wednesday, May 15, 2013

  Actual Average Record
Temperature  
Mean Temperature 70 °F -  
Max Temperature 86 °F 82 °F 93 °F (1998)
Min Temperature 53 °F 57 °F 51 °F (1997)
Cooling Degree Days 4    
Growing Degree Days 20 (Base 50)    
Moisture  
Dew Point 54 °F    
Average Humidity 65    
Maximum Humidity 100    
Minimum Humidity 29    
Precipitation  
Precipitation 0.00 in 0.12 in - ()
Sea Level Pressure  
Sea Level Pressure 30.12 in    
Wind  
Wind Speed 1 mph ()    
Max Wind Speed 9 mph    
Max Gust Speed -    
Visibility 4.9 miles    
Events      
Averages and records for this station are not official NWS values.
T = Trace of Precipitation, MM = Missing Value Source: Averaged Metar Reports

Daily Weather History Graph

Daily Weather History Graph

Search for Another Location

Airport:

Trip Planner

Search our weather history database for the weather conditions in past years. The results will help you decide how hot, cold, wet, or windy it might be!

Date:

Astronomy

May. 15, 2013 Rise Set
Actual Time 7:08 AM CDT 8:12 PM CDT
Civil Twilight 6:44 AM CDT 8:36 PM CDT
Nautical Twilight 6:16 AM CDT 9:04 PM CDT
Astronomical Twilight 5:47 AM CDT 9:33 PM CDT
Moon 11:38 AM CDT (5/15) 12:05 AM CDT (5/15)
Length of Visible Light 13h 52m
Length of Day
13h 04m
Waxing Crescent, 27% of the Moon is Illuminated
May 15
Waxing Crescent
May 17
First Quarter
May 24
Full
May 31
Last Quarter
Jun 8
New

Hourly Weather History & Observations

Time (CDT) Temp. Dew Point Humidity Pressure Visibility Wind Dir Wind Speed Gust Speed Precip Events Conditions
12:50 AM 57.2 °F 55.4 °F 94% 29.93 in 5.0 mi Calm Calm - N/A   Mostly Cloudy
12:55 AM 60 °F 56 °F 81% 30.00 in 5 mi SSW 2.2 mph - -   Partly Cloudy
1:49 AM 55.4 °F 55.4 °F 100% 30.33 in 5.0 mi Calm Calm - N/A   Mostly Cloudy
2:43 AM 55.4 °F 55.4 °F 100% 30.31 in 5.0 mi Calm Calm - N/A   Mostly Cloudy
3:45 AM 57.2 °F 55.4 °F 94% 29.99 in 5.0 mi Calm Calm - N/A   Mostly Cloudy
5:06 AM 55.4 °F 53.6 °F 94% 30.29 in 5.0 mi Calm Calm - N/A   Mostly Cloudy
5:42 AM 53.6 °F 53.6 °F 100% 30.30 in 5.0 mi Calm Calm - N/A   Mostly Cloudy
6:42 AM 55.4 °F 53.6 °F 94% 29.97 in 4.0 mi Calm Calm - N/A   Mostly Cloudy
6:55 AM 57 °F 46 °F 56% 30.03 in 5 mi SSW 2.2 mph - -   Partly Cloudy
7:17 AM 55.4 °F 53.6 °F 94% 30.32 in 3.0 mi Calm Calm - N/A   Mostly Cloudy
7:43 AM 55.4 °F 53.6 °F 94% 30.32 in 3.0 mi Calm Calm - N/A   Mostly Cloudy
8:45 AM 59.0 °F 55.4 °F 88% 30.34 in 3.0 mi Calm Calm - N/A   Mostly Cloudy
9:44 AM 62.6 °F 55.4 °F 77% 29.98 in 3.0 mi Calm Calm - N/A   Smoke
9:55 AM 66 °F 52 °F 51% 30.06 in 7 mi SSE 2.2 mph - -   Partly Cloudy
10:16 AM 66.2 °F 55.4 °F 68% 30.35 in 3.0 mi Calm Calm - N/A   Smoke
10:50 AM 68.0 °F 57.2 °F 68% 30.35 in 3.0 mi Calm Calm - N/A   Smoke
11:17 AM 71.6 °F 57.2 °F 60% 30.34 in 3.0 mi Calm Calm - N/A   Smoke
11:42 AM 71.6 °F 57.2 °F 60% 30.33 in 3.0 mi NNE 4.6 mph - N/A   Smoke
12:19 PM 75.2 °F 57.2 °F 53% 30.31 in 3.0 mi Calm Calm - N/A   Smoke
12:46 PM 73.4 °F 55.4 °F 53% 29.88 in 5.0 mi Variable 2.3 mph - N/A   Scattered Clouds
12:50 PM 79 °F 53 °F 29% 29.98 in 6 mi ENE 4.5 mph - -   Partly Cloudy
1:43 PM 78.8 °F 50.0 °F 36% 30.27 in 6.0 mi Calm Calm - N/A   Scattered Clouds
2:46 PM 82.4 °F 50.0 °F 32% 30.24 in 6.0 mi SSE 2.3 mph - N/A   Mostly Cloudy
3:40 PM 78.8 °F 51.8 °F 39% 29.75 in 6.0 mi NNW 8.1 mph - N/A   Mostly Cloudy
4:46 PM 78.8 °F 50.0 °F 36% 30.17 in 6.0 mi NW 4.6 mph - N/A   Mostly Cloudy
5:40 PM 78.8 °F 51.8 °F 39% 30.17 in 6.0 mi WNW 3.5 mph - N/A   Mostly Cloudy
6:55 PM 73 °F 52 °F 36% 29.71 in 6 mi South 4.5 mph - -   Partly Cloudy
6:55 PM 77.0 °F 53.6 °F 44% 29.72 in 5.0 mi SW 9.2 mph - N/A   Mostly Cloudy
7:45 PM 73.4 °F 53.6 °F 50% 30.17 in 5.0 mi SW 4.6 mph - N/A   Overcast
8:41 PM 68.0 °F 53.6 °F 60% 30.18 in 5.0 mi WSW 2.3 mph - N/A   Mostly Cloudy
9:45 PM 66.2 °F 50.0 °F 56% 29.76 in 7.0 mi WSW 3.5 mph - N/A   Scattered Clouds
9:50 PM 69 °F 56 °F 54% 29.72 in 5 mi SSW 2.2 mph - -   Partly Cloudy
10:50 PM 62.6 °F 50.0 °F 63% 30.23 in 7.0 mi Calm Calm - N/A   Mostly Cloudy
11:51 PM 66.2 °F 50.0 °F 56% 30.27 in 7.0 mi Calm Calm - N/A   Mostly Cloudy